EW5860 Weather Reports


time (UTC)temp
F
wind
direction
speed
knots
gust
knots
rain 1hr
in
rain 24hr
in
rain mn
in
humidity
%
barometer
mb
20260904161511 82 214 0.9 7.8 0.00 0.05 0.00 71 1012.4
20260904160006 83 243 0.9 4.3 0.00 0.05 0.00 70 1012.7
20260904154506 82 242 1.7 7.0 0.00 0.05 0.00 69 1012.6
20260904153003 82 48 0.0 4.3 0.00 0.05 0.00 71 1012.5
20260904151503 81 266 0.0 8.7 0.00 0.05 0.00 72 1012.6
20260904150002 81 37 0.0 7.0 0.00 0.05 0.00 74 1012.5
20260904144611 80 242 0.9 7.0 0.00 0.05 0.00 73 1012.4
20260904143101 79 269 2.6 7.0 0.00 0.05 0.00 74 1012.5
20260904141602 79 330 0.9 5.2 0.00 0.05 0.00 76 1012.4
20260904140054 79 324 0.0 6.1 0.00 0.05 0.00 77 1012.3
20260904134552 78 225 0.9 6.1 0.00 0.05 0.00 78 1012.5
20260904133057 77 202 0.0 4.3 0.00 0.05 0.00 81 1012.5
20260904131547 76 46 0.9 9.6 0.00 0.05 0.00 81 1012.5
20260904130045 76 24 0.0 6.1 0.00 0.05 0.00 83 1012.8
20260904124543 75 270 0.9 8.7 0.00 0.05 0.00 85 1012.6
20260904123042 74 284 2.6 12.2 0.00 0.05 0.00 85 1012.6
20260904121541 74 275 1.7 10.4 0.00 0.05 0.00 86 1012.8
20260904120042 73 313 0.9 6.1 0.00 0.05 0.00 87 1012.7
20260904114540 73 267 0.9 8.7 0.00 0.05 0.00 88 1012.6
20260904113038 72 236 0.9 9.6 0.00 0.05 0.00 89 1012.5
20260904111536 72 22 1.7 7.0 0.00 0.05 0.00 89 1012.3
20260904110034 72 266 3.5 8.7 0.00 0.05 0.00 89 1012.1
20260904104534 72 284 1.7 9.6 0.00 0.06 0.00 89 1011.7
20260904103031 72 217 0.9 7.8 0.00 0.06 0.00 89 1011.5
20260904101530 72 29 1.7 7.8 0.00 0.06 0.00 89 1011.4
20260904100030 73 285 0.9 7.0 0.00 0.06 0.00 88 1011.2
20260904094528 73 247 0.9 7.0 0.00 0.09 0.00 88 1011.5
20260904093030 73 261 0.0 4.3 0.00 0.09 0.00 89 1011.5
20260904091544 73 319 0.0 3.5 0.00 0.09 0.00 88 1011.7
20260904090025 73 30 1.7 7.8 0.00 0.09 0.00 88 1011.7
20260904084525 74 266 0.9 7.0 0.00 0.48 0.00 89 1011.6
20260904083029 74 263 1.7 7.8 0.00 0.48 0.00 90 1011.6
20260904081522 74 312 1.7 5.2 0.00 0.48 0.00 92 1011.6
20260904080022 75 334 0.0 7.0 0.00 0.48 0.00 92 1011.6
20260904074537 74 262 0.0 6.1 0.00 0.56 0.00 94 1011.8
20260904073022 74 222 0.0 2.6 0.00 0.56 0.00 97 1011.5
20260904071520 73 224 0.0 0.0 0.00 0.56 0.00 97 1011.5
20260904070019 73 215 0.0 0.0 0.00 0.56 0.00 96 1011.0
20260904064518 74 213 0.0 1.7 0.00 0.56 0.00 97 1010.7
20260904063034 74 217 0.0 0.9 0.00 0.56 0.00 96 1010.5
20260904061516 74 217 0.0 1.7 0.00 0.56 0.00 96 1010.6
20260904060012 74 250 0.0 0.0 0.00 0.56 0.00 95 1010.8
20260904054510 75 250 0.0 0.0 0.00 1.30 0.00 95 1011.3
20260904053008 75 250 0.0 0.0 0.00 1.30 0.00 94 1011.7
20260904051507 76 250 0.0 1.7 0.00 1.30 0.00 93 1011.6
20260904050006 76 62 0.0 0.9 0.00 1.30 0.00 93 1011.3
20260904044505 76 306 0.0 1.7 0.00 1.33 0.00 92 1011.1
20260904043004 76 234 1.7 8.7 0.04 1.33 0.00 91 1011.2
20260904041609 75 208 2.6 5.2 0.05 1.33 0.00 94 1011.5
20260904040056 76 230 0.0 1.7 0.05 1.33 0.00 93 1012.0
20260904034556 77 319 0.0 5.2 0.05 1.33 1.33 89 1012.1
20260904033100 78 211 0.9 3.5 0.01 1.29 1.29 85 1012.0
20260904031604 79 196 2.6 6.1 0.00 1.28 1.28 81 1012.4
20260904030054 78 220 3.5 7.0 0.00 1.28 1.28 83 1012.5
20260904024554 76 205 2.6 4.3 0.00 1.28 1.28 89 1012.4
20260904023053 76 258 0.0 0.0 0.00 1.28 1.28 87 1012.4
20260904021554 78 38 0.0 0.0 0.00 1.28 1.28 84 1012.3
20260904020051 78 38 0.0 1.7 0.00 1.28 1.28 82 1012.5
20260904014553 79 244 0.0 5.2 0.00 1.28 1.28 82 1012.5
20260904013052 79 212 1.7 7.8 0.00 1.28 1.28 82 1012.4
20260904011551 79 195 1.7 7.0 0.00 1.28 1.28 83 1012.7
20260904010053 79 208 3.5 7.0 0.00 1.28 1.28 83 1012.7
20260904004549 79 182 2.6 6.1 0.00 1.28 1.28 84 1013.0
20260904003049 79 196 2.6 6.1 0.00 1.28 1.28 84 1012.8
20260904001549 78 205 1.7 5.2 0.00 1.28 1.28 87 1012.7
20260904000048 76 212 0.9 2.6 0.00 1.28 1.28 93 1012.5
20260903234547 77 205 0.0 0.0 0.00 1.28 1.28 91 1012.3
20260903233048 78 205 0.0 0.0 0.00 1.28 1.28 89 1012.3
20260903231550 78 205 0.0 0.0 0.00 1.28 1.28 87 1012.6
20260903230049 80 205 0.0 1.7 0.00 1.28 1.28 85 1012.4
20260903224547 82 216 0.0 1.7 0.00 1.28 1.28 79 1012.2
20260903223046 85 231 0.0 2.6 0.00 1.28 1.28 74 1012.1
20260903221549 86 225 0.0 2.6 0.00 1.28 1.28 73 1012.1
20260903220044 86 241 0.0 3.5 0.00 1.28 1.28 72 1012.2
20260903214545 86 206 0.9 7.0 0.00 1.28 1.28 70 1012.0
20260903213042 86 225 0.0 0.9 0.00 1.28 1.28 73 1011.7
20260903211548 85 235 0.0 1.7 0.00 1.28 1.28 71 1011.8
20260903210041 85 207 0.9 3.5 0.00 1.28 1.28 69 1011.8
20260903204538 86 253 0.9 7.8 0.00 1.28 1.28 68 1012.0
20260903203047 86 154 1.7 8.7 0.00 1.28 1.28 67 1012.0
20260903201535 86 270 3.5 8.7 0.00 1.28 1.28 66 1012.2
20260903200043 86 240 3.5 7.8 0.00 1.28 1.28 67 1012.3
20260903194540 85 259 4.3 7.8 0.00 1.28 1.28 68 1012.3
20260903193035 85 212 3.5 8.7 0.00 1.28 1.28 67 1012.5
20260903191533 85 190 2.6 9.6 0.00 1.28 1.28 69 1012.7
20260903190024 85 192 1.7 7.8 0.00 1.28 1.28 67 1012.9
20260903184521 84 269 1.7 8.7 0.00 1.29 1.28 73 1013.2
20260903183022 85 203 3.5 10.4 0.00 1.29 1.28 69 1013.3
20260903181517 84 217 3.5 7.8 0.00 1.29 1.28 72 1013.4
20260903180029 84 238 0.0 5.2 0.00 1.29 1.28 74 1013.6
20260903174512 83 179 3.5 9.6 0.00 1.38 1.28 73 1013.6
20260903173009 83 190 3.5 9.6 0.00 1.38 1.28 77 1013.6
20260903171506 82 251 2.6 9.6 0.00 1.38 1.28 78 1014.0
20260903170004 82 250 6.1 13.9 0.00 1.38 1.28 77 1014.2
20260903164504 81 212 5.2 12.2 0.00 1.38 1.28 76 1014.6
20260903163003 82 265 3.5 9.6 0.00 1.38 1.28 76 1014.7